Retour au catalogue

XINZHENGCHENG 02

ActifMilitairePO
NORAD 68412·PAYLOAD·🇨🇳 China

Lancé Mar 30, 2026 depuis Jiuquan Satellite Launch Center

Loading…

Prochains Passages (prochaines 24 heures)

TLE

FraisSource: Space-Track

Époque: Sep 13, 2026, 20:03 UTC

1 68412U 26066A   26256.83575323  .00000410  00000-0  40818-4 0  9998
2 68412  84.9709 171.3647 0023710 307.3035  52.6027 14.88481931 24918

Suivez XINZHENGCHENG 02 en temps réel avec AllMySat

Download on the App Store